GW1999 Weather Reports


Display with metric or nautical units.
time (UTC)temp
F
wind
direction
speed
MPH
gust
MPH
rain 1hr
in
rain 24hr
in
rain mn
in
humidity
%
barometer
mb
20260906023052 75 142 0.0 2.0 0.00 0.00 0.00 88 1012.4
20260906021512 75 137 0.0 2.0 0.00 0.00 0.00 90 1012.4
20260906020051 75 360 0.0 2.0 0.00 0.00 0.00 87 1012.2
20260906014512 75 360 1.0 2.0 0.00 0.00 0.00 87 1011.8
20260906013032 75 338 0.0 2.0 0.00 0.00 0.00 87 1012.0
20260906011512 76 313 0.0 0.0 0.00 0.00 0.00 87 1011.9
20260906010032 76 313 0.0 0.0 0.00 0.00 0.00 85 1011.7
20260906004510 77 293 0.0 1.0 0.00 0.00 0.00 84 1011.4
20260906003030 78 1 0.0 2.0 0.00 0.00 0.00 81 1011.3
20260906001548 79 1 0.0 1.0 0.00 0.00 0.00 79 1011.2
20260906000029 80 178 0.0 2.0 0.00 0.00 0.00 77 1011.2
20260905234612 80 178 0.0 0.0 0.00 0.00 0.00 77 1011.1
20260905233030 81 221 0.0 0.0 0.00 0.00 0.00 75 1010.8
20260905231508 81 222 0.0 2.0 0.00 0.00 0.00 74 1010.8
20260905230030 82 250 0.0 3.0 0.00 0.00 0.00 73 1010.7
20260905224548 82 287 1.0 3.0 0.00 0.00 0.00 72 1010.6
20260905223035 82 193 0.0 2.0 0.00 0.00 0.00 72 1010.5
20260905221548 82 249 0.0 2.0 0.00 0.00 0.00 72 1010.6
20260905220024 82 226 0.0 3.0 0.00 0.00 0.00 71 1010.6
20260905214538 82 200 0.0 2.0 0.00 0.00 0.00 69 1011.1
20260905213102 83 57 0.0 2.0 0.00 0.00 0.00 68 1011.2
20260905211525 83 67 0.0 2.0 0.00 0.00 0.00 69 1011.5
20260905210100 82 51 0.0 5.0 0.00 0.00 0.00 70 1011.5
20260905210005 82 51 0.0 5.0 0.00 0.00 0.00 71 1011.3
20260905204521 82 26 1.0 4.0 0.00 0.00 0.00 74 1011.8
20260905203041 81 1 1.0 6.0 0.00 0.00 0.00 75 1012.3
20260905201605 80 331 2.0 3.0 0.00 0.00 0.00 78 1012.6
20260905200044 78 186 0.0 2.0 0.00 0.00 0.00 80 1012.3
20260905194600 77 23 1.0 6.0 0.00 0.00 0.00 82 1011.5
20260905194502 77 20 1.0 6.0 0.00 0.00 0.00 82 1011.5
20260905193028 77 214 2.0 4.0 0.00 0.00 0.00 82 1011.3
20260905191609 78 345 6.0 15.0 0.00 0.00 0.00 76 1012.2
20260905190016 86 325 10.0 21.0 0.00 0.00 0.00 62 1012.1
20260905184605 93 22 3.0 6.0 0.00 0.00 0.00 55 1011.9
20260905183031 94 18 1.0 3.0 0.00 0.00 0.00 52 1011.8
20260905181513 95 13 0.0 3.0 0.00 0.00 0.00 49 1011.1
20260905180030 97 10 4.0 7.0 0.00 0.00 0.00 47 1011.5
20260905174551 99 177 1.0 4.0 0.00 0.00 0.00 48 1011.7
20260905173025 98 322 1.0 6.0 0.00 0.00 0.00 46 1012.1
20260905171548 97 38 1.0 7.0 0.00 0.00 0.00 50 1012.2
20260905170017 96 54 1.0 7.0 0.00 0.00 0.00 49 1012.4
20260905164552 95 151 1.0 6.0 0.00 0.00 0.00 53 1012.7
20260905163014 96 21 0.0 5.0 0.00 0.00 0.00 54 1012.9
20260905161545 95 39 0.0 3.0 0.00 0.00 0.00 54 1013.0
20260905160004 94 109 0.0 4.0 0.00 0.00 0.00 57 1013.1
20260905154525 93 41 0.0 4.0 0.00 0.00 0.00 60 1013.2
20260905153005 91 209 0.0 4.0 0.00 0.00 0.00 60 1013.3
20260905151524 92 106 0.0 4.0 0.00 0.00 0.00 61 1013.5
20260905150056 91 163 0.0 2.0 0.00 0.00 0.00 65 1013.4
20260905144542 90 122 0.0 2.0 0.00 0.00 0.00 67 1013.4
20260905143047 88 295 1.0 3.0 0.00 0.00 0.00 68 1013.6
20260905141613 85 185 2.0 4.0 0.00 0.00 0.00 72 1013.6
20260905141502 85 213 1.0 3.0 0.00 0.00 0.00 72 1013.6
20260905140055 84 51 0.0 5.0 0.00 0.00 0.00 75 1013.7
20260905134507 83 219 0.0 3.0 0.00 0.00 0.00 75 1013.9
20260905133053 82 190 0.0 2.0 0.00 0.00 0.00 82 1014.0
20260905131601 80 180 0.0 2.0 0.00 0.00 0.00 84 1014.2
20260905131501 79 177 1.0 2.0 0.00 0.00 0.00 84 1014.1
20260905130047 78 9 0.0 2.0 0.00 0.00 0.00 88 1014.1
20260905124507 75 1 0.0 2.0 0.00 0.00 0.00 93 1014.0
20260905123031 75 230 0.0 0.0 0.00 0.00 0.00 94 1013.9
20260905121547 74 229 0.0 2.0 0.00 0.00 0.00 94 1013.9
20260905120013 73 352 0.0 0.0 0.00 0.00 0.00 94 1013.8
20260905114625 73 352 0.0 0.0 0.00 0.00 0.00 94 1013.5
20260905113017 73 352 0.0 0.0 0.00 0.00 0.00 94 1013.3
20260905111550 73 352 0.0 0.0 0.00 0.00 0.00 94 1013.2
20260905110025 73 352 0.0 0.0 0.00 0.00 0.00 93 1012.9
20260905104551 73 352 0.0 0.0 0.00 0.00 0.00 93 1012.7
20260905103028 73 352 0.0 0.0 0.00 0.00 0.00 93 1012.6
20260905101539 73 352 0.0 0.0 0.00 0.00 0.00 93 1012.5
20260905100023 73 352 0.0 0.0 0.00 0.00 0.00 93 1012.3
20260905094504 73 352 0.0 0.0 0.00 0.00 0.00 93 1012.4
20260905093029 73 352 0.0 0.0 0.00 0.00 0.00 93 1012.5
20260905091507 74 339 0.0 0.0 0.00 0.00 0.00 93 1012.5
20260905090033 74 339 0.0 0.0 0.00 0.00 0.00 93 1012.6
20260905084515 74 339 0.0 0.0 0.00 0.00 0.00 92 1012.6
20260905083037 74 339 0.0 0.0 0.00 0.00 0.00 92 1012.8
20260905081503 74 339 0.0 0.0 0.00 0.00 0.00 92 1012.8
20260905080025 74 339 0.0 2.0 0.00 0.00 0.00 92 1013.0
20260905074525 74 345 0.0 0.0 0.00 0.00 0.00 92 1013.2
20260905073059 75 345 0.0 0.0 0.00 0.00 0.00 91 1013.3
20260905071513 75 345 0.0 0.0 0.00 0.00 0.00 90 1013.3
20260905070033 75 345 0.0 0.0 0.00 0.00 0.00 89 1013.5
20260905064514 75 345 0.0 3.0 0.00 0.00 0.00 90 1013.6
20260905063033 75 359 0.0 0.0 0.00 0.00 0.00 89 1013.6
20260905061612 75 359 0.0 0.0 0.00 0.00 0.00 88 1013.8
20260905060027 76 359 0.0 0.0 0.00 0.00 0.00 88 1014.0
20260905054505 76 359 0.0 0.0 0.00 0.00 0.00 88 1014.0
20260905053020 76 359 0.0 0.0 0.00 0.00 0.00 87 1014.0
20260905051604 77 359 0.0 0.0 0.00 0.00 0.00 86 1014.2
20260905050017 77 359 0.0 0.0 0.00 0.00 0.00 86 1014.0
20260905044555 77 359 0.0 0.0 0.00 0.00 0.00 85 1014.2
20260905043021 77 359 0.0 0.0 0.00 0.00 0.00 84 1013.9
20260905041547 77 359 0.0 2.0 0.00 0.00 0.00 85 1013.9
20260905034524 78 252 0.0 0.0 0.00 0.00 0.00 88 1013.9
20260905033109 78 252 0.0 0.0 0.00 0.00 0.00 89 1014.0
20260905033024 78 252 0.0 0.0 0.00 0.00 0.00 89 1014.0
20260905031602 78 252 0.0 0.0 0.00 0.00 0.00 89 1014.2
20260905030012 78 252 0.0 0.0 0.00 0.00 0.00 88 1014.3
20260905024536 79 252 0.0 0.0 0.00 0.00 0.00 87 1014.5